Time,TemperatureF,DewpointF,PressureIn,WindDirection,WindDirectionDegrees,WindSpeedMPH,WindSpeedGustMPH,Humidity,HourlyPrecipIn,Conditions,Clouds,dailyrainin,SoftwareType,DateUTC
2013-02-17 00:00:00,23.5,14.5,29.74,NNE,13,4.0,8.0,68,0.00,,,0.01,Wunderground v.1.15,2013-02-17 05:00:00,
2013-02-17 00:05:00,23.4,14.0,29.74,NNE,26,5.0,8.0,67,0.00,,,0.00,Wunderground v.1.15,2013-02-17 05:05:00,
2013-02-17 00:10:00,23.2,13.5,29.74,NNE,19,4.0,4.0,66,0.00,,,0.00,Wunderground v.1.15,2013-02-17 05:10:00,
2013-02-17 00:15:00,23.0,13.3,29.74,NNE,20,4.0,7.0,66,0.00,,,0.00,Wunderground v.1.15,2013-02-17 05:15:00,
2013-02-17 00:20:00,22.9,13.2,29.74,NNE,18,5.0,8.0,66,0.00,,,0.00,Wunderground v.1.15,2013-02-17 05:20:00,
2013-02-17 00:25:00,22.8,13.1,29.74,NE,46,5.0,8.0,66,0.00,,,0.00,Wunderground v.1.15,2013-02-17 05:25:00,
2013-02-17 00:30:00,22.7,13.0,29.74,NNE,21,4.0,8.0,66,0.00,,,0.00,Wunderground v.1.15,2013-02-17 05:30:00,
2013-02-17 00:35:00,22.6,12.9,29.74,NNE,28,4.0,8.0,66,0.00,,,0.00,Wunderground v.1.15,2013-02-17 05:35:00,
2013-02-17 00:40:00,22.5,12.8,29.74,NNE,31,4.0,4.0,66,0.00,,,0.00,Wunderground v.1.15,2013-02-17 05:40:00,
2013-02-17 00:45:00,22.4,12.4,29.73,NNW,348,5.0,5.0,65,0.00,,,0.00,Wunderground v.1.15,2013-02-17 05:45:00,
2013-02-17 00:50:00,22.4,12.4,29.73,NE,37,4.0,4.0,65,0.00,,,0.00,Wunderground v.1.15,2013-02-17 05:50:00,
2013-02-17 01:00:00,22.1,11.4,29.73,NE,51,5.0,10.0,63,0.00,,,0.00,Wunderground v.1.15,2013-02-17 06:00:00,
2013-02-17 01:05:00,22.0,11.3,29.73,NNE,19,5.0,10.0,63,0.00,,,0.00,Wunderground v.1.15,2013-02-17 06:05:00,
2013-02-17 01:15:00,21.8,10.8,29.73,NE,50,4.0,10.0,62,0.00,,,0.00,Wunderground v.1.15,2013-02-17 06:15:00,
2013-02-17 01:20:00,21.7,10.3,29.74,North,11,4.0,4.0,61,0.00,,,0.00,Wunderground v.1.15,2013-02-17 06:20:00,
2013-02-17 01:25:00,21.6,9.8,29.73,NNE,31,5.0,5.0,60,0.00,,,0.00,Wunderground v.1.15,2013-02-17 06:25:00,
2013-02-17 01:30:00,21.5,10.1,29.73,NNW,339,5.0,5.0,61,0.00,,,0.00,Wunderground v.1.15,2013-02-17 06:30:00,
2013-02-17 01:35:00,21.4,10.0,29.72,ENE,57,4.0,8.0,61,0.00,,,0.00,Wunderground v.1.15,2013-02-17 06:35:00,
2013-02-17 01:40:00,21.3,10.3,29.73,ENE,61,3.0,8.0,62,0.00,,,0.00,Wunderground v.1.15,2013-02-17 06:40:00,
2013-02-17 01:45:00,21.3,9.9,29.73,NNE,25,4.0,8.0,61,0.00,,,0.00,Wunderground v.1.15,2013-02-17 06:45:00,
2013-02-17 01:55:00,21.1,9.4,29.73,North,5,6.0,8.0,60,0.00,,,0.00,Wunderground v.1.15,2013-02-17 06:55:00,
2013-02-17 02:00:00,21.1,9.4,29.73,ENE,67,6.0,6.0,60,0.00,,,0.00,Wunderground v.1.15,2013-02-17 07:00:00,
2013-02-17 02:05:00,21.0,9.6,29.73,ENE,67,4.0,8.0,61,0.00,,,0.00,Wunderground v.1.15,2013-02-17 07:05:00,
2013-02-17 02:10:00,21.0,9.3,29.72,NE,49,5.0,5.0,60,0.00,,,0.00,Wunderground v.1.15,2013-02-17 07:10:00,
2013-02-17 02:15:00,21.0,8.9,29.71,North,355,5.0,8.0,59,0.00,,,0.00,Wunderground v.1.15,2013-02-17 07:15:00,
2013-02-17 02:20:00,21.1,8.6,29.71,NE,49,5.0,8.0,58,0.00,,,0.00,Wunderground v.1.15,2013-02-17 07:20:00,
2013-02-17 02:30:00,21.1,8.2,29.71,ENE,67,6.0,6.0,57,0.00,,,0.00,Wunderground v.1.15,2013-02-17 07:30:00,
2013-02-17 02:35:00,21.1,7.8,29.71,NE,42,4.0,8.0,56,0.00,,,0.00,Wunderground v.1.15,2013-02-17 07:35:00,
2013-02-17 02:40:00,21.1,7.8,29.71,North,360,4.0,9.0,56,0.00,,,0.00,Wunderground v.1.15,2013-02-17 07:40:00,
2013-02-17 02:45:00,21.1,7.4,29.72,NNE,17,5.0,9.0,55,0.00,,,0.00,Wunderground v.1.15,2013-02-17 07:45:00,
2013-02-17 02:50:00,21.0,8.1,29.72,NE,43,4.0,4.0,57,0.00,,,0.00,Wunderground v.1.15,2013-02-17 07:50:00,
2013-02-17 02:55:00,20.8,7.9,29.72,ENE,76,4.0,5.0,57,0.00,,,0.00,Wunderground v.1.15,2013-02-17 07:55:00,
2013-02-17 03:00:00,20.7,8.2,29.72,ENE,60,3.0,8.0,58,0.00,,,0.00,Wunderground v.1.15,2013-02-17 08:00:00,
2013-02-17 03:10:00,20.4,8.3,29.72,North,9,3.0,8.0,59,0.00,,,0.00,Wunderground v.1.15,2013-02-17 08:10:00,
2013-02-17 03:15:00,20.1,8.4,29.71,NE,52,4.0,8.0,60,0.00,,,0.00,Wunderground v.1.15,2013-02-17 08:15:00,
2013-02-17 03:20:00,19.9,8.2,29.70,North,355,5.0,5.0,60,0.00,,,0.00,Wunderground v.1.15,2013-02-17 08:20:00,
2013-02-17 03:25:00,19.7,8.4,29.70,North,355,5.0,8.0,61,0.00,,,0.00,Wunderground v.1.15,2013-02-17 08:25:00,
2013-02-17 03:30:00,19.6,8.3,29.69,NE,50,4.0,4.0,61,0.00,,,0.00,Wunderground v.1.15,2013-02-17 08:30:00,
2013-02-17 03:35:00,19.5,8.6,29.69,East,88,3.0,8.0,62,0.00,,,0.00,Wunderground v.1.15,2013-02-17 08:35:00,
2013-02-17 03:40:00,19.4,8.5,29.69,ENE,71,3.0,8.0,62,0.00,,,0.00,Wunderground v.1.15,2013-02-17 08:40:00,
2013-02-17 03:50:00,19.1,8.6,29.69,NE,34,5.0,5.0,63,0.00,,,0.00,Wunderground v.1.15,2013-02-17 08:50:00,
2013-02-17 03:55:00,19.0,8.5,29.69,NNE,25,4.0,8.0,63,0.00,,,0.00,Wunderground v.1.15,2013-02-17 08:55:00,
2013-02-17 04:00:00,18.9,8.4,29.70,NNE,13,4.0,8.0,63,0.00,,,0.00,Wunderground v.1.15,2013-02-17 09:00:00,
2013-02-17 04:05:00,18.8,8.3,29.69,NNE,33,5.0,8.0,63,0.00,,,0.00,Wunderground v.1.15,2013-02-17 09:05:00,
2013-02-17 04:10:00,18.8,8.3,29.69,North,360,5.0,5.0,63,0.00,,,0.00,Wunderground v.1.15,2013-02-17 09:10:00,
2013-02-17 04:15:00,18.7,8.2,29.70,NE,45,5.0,6.0,63,0.00,,,0.00,Wunderground v.1.15,2013-02-17 09:15:00,
2013-02-17 04:20:00,18.6,8.1,29.70,NNE,26,4.0,4.0,63,0.00,,,0.00,Wunderground v.1.15,2013-02-17 09:20:00,
2013-02-17 04:25:00,18.6,7.7,29.70,NE,49,4.0,8.0,62,0.00,,,0.00,Wunderground v.1.15,2013-02-17 09:25:00,
2013-02-17 04:35:00,18.4,7.5,29.70,North,350,6.0,8.0,62,0.00,,,0.00,Wunderground v.1.15,2013-02-17 09:35:00,
2013-02-17 04:40:00,18.4,7.5,29.70,NE,34,5.0,8.0,62,0.00,,,0.00,Wunderground v.1.15,2013-02-17 09:40:00,
2013-02-17 04:45:00,18.3,7.4,29.70,NE,36,5.0,8.0,62,0.00,,,0.00,Wunderground v.1.15,2013-02-17 09:45:00,
2013-02-17 04:50:00,18.2,7.0,29.69,NNE,16,6.0,9.0,61,0.00,,,0.00,Wunderground v.1.15,2013-02-17 09:50:00,
2013-02-17 04:55:00,18.2,7.0,29.69,North,355,5.0,9.0,61,0.00,,,0.00,Wunderground v.1.15,2013-02-17 09:55:00,
2013-02-17 05:00:00,18.1,7.3,29.69,North,9,5.0,8.0,62,0.00,,,0.00,Wunderground v.1.15,2013-02-17 10:00:00,
2013-02-17 05:10:00,18.0,6.8,29.68,NNE,22,5.0,8.0,61,0.00,,,0.00,Wunderground v.1.15,2013-02-17 10:10:00,
2013-02-17 05:15:00,18.0,6.8,29.69,NNE,32,5.0,8.0,61,0.00,,,0.00,Wunderground v.1.15,2013-02-17 10:15:00,
2013-02-17 05:20:00,17.9,6.7,29.68,NE,46,5.0,5.0,61,0.00,,,0.00,Wunderground v.1.15,2013-02-17 10:20:00,
2013-02-17 05:25:00,17.9,6.3,29.68,NE,53,6.0,12.0,60,0.00,,,0.00,Wunderground v.1.15,2013-02-17 10:25:00,
2013-02-17 05:30:00,17.8,5.9,29.68,NE,49,7.0,7.0,59,0.00,,,0.00,Wunderground v.1.15,2013-02-17 10:30:00,
2013-02-17 05:35:00,17.8,5.9,29.68,ENE,57,7.0,11.0,59,0.00,,,0.00,Wunderground v.1.15,2013-02-17 10:35:00,
2013-02-17 05:40:00,17.8,5.9,29.68,NNE,15,6.0,8.0,59,0.00,,,0.00,Wunderground v.1.15,2013-02-17 10:40:00,
2013-02-17 05:45:00,17.8,6.2,29.68,NE,40,8.0,8.0,60,0.00,,,0.00,Wunderground v.1.15,2013-02-17 10:45:00,
2013-02-17 05:55:00,17.7,6.9,29.67,NNE,19,6.0,8.0,62,0.00,,,0.00,Wunderground v.1.15,2013-02-17 10:55:00,
2013-02-17 06:00:00,17.6,6.8,29.66,NNE,28,5.0,8.0,62,0.00,,,0.00,Wunderground v.1.15,2013-02-17 11:00:00,
2013-02-17 06:05:00,17.6,7.1,29.67,NNE,22,5.0,8.0,63,0.00,,,0.00,Wunderground v.1.15,2013-02-17 11:05:00,
2013-02-17 06:10:00,17.5,7.4,29.66,NE,56,4.0,8.0,64,0.00,,,0.00,Wunderground v.1.15,2013-02-17 11:10:00,
2013-02-17 06:15:00,17.3,7.2,29.66,ENE,59,6.0,8.0,64,0.00,,,0.00,Wunderground v.1.15,2013-02-17 11:15:00,
2013-02-17 06:20:00,17.3,7.5,29.67,North,5,8.0,13.0,65,0.00,,,0.00,Wunderground v.1.15,2013-02-17 11:20:00,
2013-02-17 06:30:00,17.2,7.4,29.66,ENE,59,7.0,8.0,65,0.00,,,0.00,Wunderground v.1.15,2013-02-17 11:30:00,
2013-02-17 06:35:00,17.2,7.4,29.66,ENE,68,6.0,14.0,65,0.00,,,0.00,Wunderground v.1.15,2013-02-17 11:35:00,
2013-02-17 06:40:00,17.2,7.1,29.67,ENE,66,6.0,8.0,64,0.00,,,0.00,Wunderground v.1.15,2013-02-17 11:40:00,
2013-02-17 06:45:00,17.1,7.3,29.67,NE,55,8.0,8.0,65,0.00,,,0.00,Wunderground v.1.15,2013-02-17 11:45:00,
2013-02-17 06:50:00,17.0,7.3,29.67,NE,51,6.0,8.0,65,0.00,,,0.00,Wunderground v.1.15,2013-02-17 11:50:00,
2013-02-17 06:55:00,17.0,7.3,29.66,ENE,71,5.0,10.0,65,0.00,,,0.00,Wunderground v.1.15,2013-02-17 11:55:00,
2013-02-17 07:00:00,17.0,7.3,29.65,NE,37,6.0,6.0,65,0.00,,,0.00,Wunderground v.1.15,2013-02-17 12:00:00,
2013-02-17 07:05:00,16.9,7.2,29.64,NE,52,7.0,7.0,65,0.00,,,0.00,Wunderground v.1.15,2013-02-17 12:05:00,
2013-02-17 07:15:00,16.8,7.4,29.64,NE,55,5.0,7.0,66,0.00,,,0.00,Wunderground v.1.15,2013-02-17 12:15:00,
2013-02-17 07:25:00,16.8,7.1,29.65,NNW,337,7.0,8.0,65,0.00,,,0.00,Wunderground v.1.15,2013-02-17 12:25:00,
2013-02-17 07:30:00,16.8,7.4,29.64,ENE,61,6.0,8.0,66,0.00,,,0.00,Wunderground v.1.15,2013-02-17 12:30:00,
2013-02-17 07:35:00,16.7,7.3,29.64,NNW,344,6.0,8.0,66,0.00,,,0.00,Wunderground v.1.15,2013-02-17 12:35:00,
2013-02-17 07:40:00,16.7,7.3,29.64,ENE,65,7.0,10.0,66,0.00,,,0.00,Wunderground v.1.15,2013-02-17 12:40:00,
2013-02-17 07:45:00,16.7,7.0,29.64,NE,38,6.0,10.0,65,0.00,,,0.00,Wunderground v.1.15,2013-02-17 12:45:00,
2013-02-17 07:50:00,16.7,7.0,29.65,North,5,6.0,6.0,65,0.00,,,0.00,Wunderground v.1.15,2013-02-17 12:50:00,
2013-02-17 07:55:00,16.8,7.1,29.65,NNE,22,5.0,8.0,65,0.00,,,0.00,Wunderground v.1.15,2013-02-17 12:55:00,
2013-02-17 08:05:00,16.8,6.7,29.65,NNW,348,6.0,13.0,64,0.00,,,0.00,Wunderground v.1.15,2013-02-17 13:05:00,
2013-02-17 08:10:00,16.8,6.7,29.64,North,355,6.0,6.0,64,0.00,,,0.00,Wunderground v.1.15,2013-02-17 13:10:00,
2013-02-17 08:15:00,16.8,6.7,29.64,NNE,17,6.0,8.0,64,0.00,,,0.00,Wunderground v.1.15,2013-02-17 13:15:00,
2013-02-17 08:20:00,16.7,6.6,29.64,ENE,61,8.0,8.0,64,0.00,,,0.00,Wunderground v.1.15,2013-02-17 13:20:00,
2013-02-17 08:25:00,16.7,6.6,29.64,NNE,17,8.0,8.0,64,0.00,,,0.00,Wunderground v.1.15,2013-02-17 13:25:00,
2013-02-17 08:30:00,16.8,6.7,29.64,NNE,28,5.0,8.0,64,0.00,,,0.00,Wunderground v.1.15,2013-02-17 13:30:00,
2013-02-17 08:40:00,16.8,6.4,29.63,ENE,64,7.0,9.0,63,0.00,,,0.00,Wunderground v.1.15,2013-02-17 13:40:00,
2013-02-17 08:45:00,16.8,6.4,29.63,North,349,8.0,9.0,63,0.00,,,0.00,Wunderground v.1.15,2013-02-17 13:45:00,
2013-02-17 08:50:00,16.8,6.7,29.63,NE,42,7.0,11.0,64,0.00,,,0.00,Wunderground v.1.15,2013-02-17 13:50:00,
2013-02-17 08:55:00,16.9,6.5,29.63,NNE,27,7.0,11.0,63,0.00,,,0.00,Wunderground v.1.15,2013-02-17 13:55:00,
2013-02-17 09:00:00,16.9,6.8,29.63,North,350,7.0,7.0,64,0.00,,,0.00,Wunderground v.1.15,2013-02-17 14:00:00,
2013-02-17 09:05:00,17.0,6.9,29.63,NE,46,6.0,8.0,64,0.00,,,0.00,Wunderground v.1.15,2013-02-17 14:05:00,
2013-02-17 09:10:00,17.1,7.0,29.63,NNW,346,6.0,6.0,64,0.00,,,0.00,Wunderground v.1.15,2013-02-17 14:10:00,
2013-02-17 09:15:00,17.2,6.8,29.63,NE,53,5.0,8.0,63,0.00,,,0.00,Wunderground v.1.15,2013-02-17 14:15:00,
2013-02-17 09:20:00,17.1,7.0,29.63,NNE,19,7.0,8.0,64,0.00,,,0.00,Wunderground v.1.15,2013-02-17 14:20:00,
2013-02-17 09:30:00,17.3,7.2,29.62,NNE,26,6.0,6.0,64,0.00,,,0.00,Wunderground v.1.15,2013-02-17 14:30:00,
2013-02-17 09:35:00,17.4,6.9,29.61,North,355,6.0,8.0,63,0.00,,,0.00,Wunderground v.1.15,2013-02-17 14:35:00,
2013-02-17 09:40:00,17.7,7.2,29.61,North,355,6.0,6.0,63,0.00,,,0.00,Wunderground v.1.15,2013-02-17 14:40:00,
2013-02-17 09:45:00,17.8,5.9,29.61,NE,46,7.0,7.0,59,0.00,,,0.00,Wunderground v.1.15,2013-02-17 14:45:00,
2013-02-17 09:50:00,17.8,5.9,29.61,NNW,348,7.0,7.0,59,0.00,,,0.00,Wunderground v.1.15,2013-02-17 14:50:00,
2013-02-17 09:55:00,17.9,6.0,29.61,NNE,14,7.0,12.0,59,0.00,,,0.00,Wunderground v.1.15,2013-02-17 14:55:00,
2013-02-17 10:00:00,17.7,5.8,29.61,NNE,31,7.0,10.0,59,0.00,,,0.00,Wunderground v.1.15,2013-02-17 15:00:00,
2013-02-17 10:10:00,17.8,5.9,29.61,North,9,7.0,7.0,59,0.00,,,0.00,Wunderground v.1.15,2013-02-17 15:10:00,
2013-02-17 10:15:00,17.9,6.0,29.62,NE,34,6.0,8.0,59,0.00,,,0.00,Wunderground v.1.15,2013-02-17 15:15:00,
2013-02-17 10:20:00,17.8,5.5,29.61,NNE,24,8.0,11.0,58,0.00,,,0.00,Wunderground v.1.15,2013-02-17 15:20:00,
2013-02-17 10:25:00,18.1,5.8,29.62,ENE,57,7.0,11.0,58,0.00,,,0.00,Wunderground v.1.15,2013-02-17 15:25:00,
2013-02-17 10:30:00,18.1,5.4,29.62,North,5,6.0,6.0,57,0.00,,,0.00,Wunderground v.1.15,2013-02-17 15:30:00,
2013-02-17 10:35:00,18.4,5.3,29.62,NNE,32,6.0,9.0,56,0.00,,,0.00,Wunderground v.1.15,2013-02-17 15:35:00,
2013-02-17 10:45:00,18.6,5.5,29.62,NE,40,5.0,8.0,56,0.00,,,0.00,Wunderground v.1.15,2013-02-17 15:45:00,
2013-02-17 10:55:00,18.6,5.5,29.63,NE,40,8.0,8.0,56,0.00,,,0.00,Wunderground v.1.15,2013-02-17 15:55:00,
2013-02-17 11:00:00,19.1,5.6,29.63,North,9,7.0,7.0,55,0.00,,,0.00,Wunderground v.1.15,2013-02-17 16:00:00,
2013-02-17 11:05:00,19.7,5.7,29.63,WNW,299,5.0,8.0,54,0.00,,,0.00,Wunderground v.1.15,2013-02-17 16:05:00,
2013-02-17 11:10:00,19.9,5.1,29.63,North,355,6.0,8.0,52,0.00,,,0.00,Wunderground v.1.15,2013-02-17 16:10:00,
2013-02-17 11:15:00,19.8,4.6,29.63,North,355,7.0,8.0,51,0.00,,,0.00,Wunderground v.1.15,2013-02-17 16:15:00,
2013-02-17 11:20:00,19.7,4.0,29.63,North,355,8.0,8.0,50,0.00,,,0.00,Wunderground v.1.15,2013-02-17 16:20:00,
2013-02-17 11:25:00,19.7,4.0,29.63,NNW,344,9.0,9.0,50,0.00,,,0.00,Wunderground v.1.15,2013-02-17 16:25:00,
2013-02-17 11:35:00,20.0,4.3,29.63,ENE,67,8.0,8.0,50,0.00,,,0.00,Wunderground v.1.15,2013-02-17 16:35:00,
2013-02-17 11:40:00,19.7,3.6,29.63,NE,46,8.0,10.0,49,0.00,,,0.00,Wunderground v.1.15,2013-02-17 16:40:00,
2013-02-17 11:45:00,19.6,3.1,29.64,NNW,343,9.0,10.0,48,0.00,,,0.00,Wunderground v.1.15,2013-02-17 16:45:00,
2013-02-17 11:50:00,19.7,3.2,29.64,NNE,13,9.0,9.0,48,0.00,,,0.00,Wunderground v.1.15,2013-02-17 16:50:00,
2013-02-17 11:55:00,20.1,4.0,29.64,NNW,343,6.0,9.0,49,0.00,,,0.00,Wunderground v.1.15,2013-02-17 16:55:00,
2013-02-17 12:00:00,20.4,4.7,29.64,NNE,18,5.0,5.0,50,0.00,,,0.00,Wunderground v.1.15,2013-02-17 17:00:00,
2013-02-17 12:05:00,20.5,3.4,29.64,NNE,28,6.0,6.0,47,0.00,,,0.00,Wunderground v.1.15,2013-02-17 17:05:00,
2013-02-17 12:10:00,20.3,3.2,29.64,NNE,17,7.0,8.0,47,0.00,,,0.00,Wunderground v.1.15,2013-02-17 17:10:00,
2013-02-17 12:20:00,20.6,3.5,29.64,East,80,8.0,9.0,47,0.00,,,0.00,Wunderground v.1.15,2013-02-17 17:20:00,
2013-02-17 12:25:00,20.9,3.8,29.64,NE,37,7.0,9.0,47,0.00,,,0.00,Wunderground v.1.15,2013-02-17 17:25:00,
2013-02-17 12:30:00,21.4,3.8,29.64,NNE,22,6.0,8.0,46,0.00,,,0.00,Wunderground v.1.15,2013-02-17 17:30:00,
2013-02-17 12:35:00,21.8,4.2,29.64,NNW,342,5.0,8.0,46,0.00,,,0.00,Wunderground v.1.15,2013-02-17 17:35:00,
2013-02-17 12:40:00,21.9,5.2,29.64,NNE,17,6.0,6.0,48,0.00,,,0.00,Wunderground v.1.15,2013-02-17 17:40:00,
2013-02-17 12:45:00,22.2,4.1,29.64,NNE,13,7.0,7.0,45,0.00,,,0.00,Wunderground v.1.15,2013-02-17 17:45:00,
2013-02-17 12:50:00,22.0,2.9,29.64,NNE,19,7.0,8.0,43,0.00,,,0.00,Wunderground v.1.15,2013-02-17 17:50:00,
2013-02-17 13:00:00,23.2,3.5,29.64,NE,48,5.0,8.0,42,0.00,,,0.00,Wunderground v.1.15,2013-02-17 18:00:00,
2013-02-17 13:05:00,22.8,2.6,29.64,NE,50,6.0,8.0,41,0.00,,,0.00,Wunderground v.1.15,2013-02-17 18:05:00,
2013-02-17 13:10:00,22.3,2.6,29.64,NE,43,10.0,18.0,42,0.00,,,0.00,Wunderground v.1.15,2013-02-17 18:10:00,
2013-02-17 13:15:00,22.7,2.5,29.64,NE,38,9.0,18.0,41,0.00,,,0.00,Wunderground v.1.15,2013-02-17 18:15:00,
2013-02-17 13:20:00,22.7,3.0,29.64,NE,54,7.0,8.0,42,0.00,,,0.00,Wunderground v.1.15,2013-02-17 18:20:00,
2013-02-17 13:25:00,23.1,2.9,29.65,WNW,302,8.0,8.0,41,0.00,,,0.00,Wunderground v.1.15,2013-02-17 18:25:00,
2013-02-17 13:30:00,23.3,3.0,29.65,ENE,63,7.0,7.0,41,0.00,,,0.00,Wunderground v.1.15,2013-02-17 18:30:00,
2013-02-17 13:35:00,23.4,3.1,29.65,NE,42,7.0,10.0,41,0.00,,,0.00,Wunderground v.1.15,2013-02-17 18:35:00,
2013-02-17 13:45:00,22.7,2.0,29.65,North,11,9.0,9.0,40,0.00,,,0.00,Wunderground v.1.15,2013-02-17 18:45:00,
2013-02-17 13:50:00,22.9,2.1,29.65,ENE,67,10.0,10.0,40,0.00,,,0.00,Wunderground v.1.15,2013-02-17 18:50:00,
2013-02-17 13:55:00,23.4,2.0,29.65,NE,35,8.0,10.0,39,0.00,,,0.00,Wunderground v.1.15,2013-02-17 18:55:00,
2013-02-17 14:05:00,23.8,2.4,29.65,North,355,8.0,8.0,39,0.00,,,0.00,Wunderground v.1.15,2013-02-17 19:05:00,
2013-02-17 14:10:00,24.0,2.0,29.65,East,85,8.0,8.0,38,0.00,,,0.00,Wunderground v.1.15,2013-02-17 19:10:00,
2013-02-17 14:15:00,24.1,1.5,29.66,NW,309,8.0,10.0,37,0.00,,,0.00,Wunderground v.1.15,2013-02-17 19:15:00,
2013-02-17 14:20:00,23.8,1.3,29.66,NNW,341,8.0,8.0,37,0.00,,,0.00,Wunderground v.1.15,2013-02-17 19:20:00,
2013-02-17 14:25:00,23.2,1.3,29.66,NNE,28,9.0,12.0,38,0.00,,,0.00,Wunderground v.1.15,2013-02-17 19:25:00,
2013-02-17 14:30:00,23.1,2.3,29.66,North,360,8.0,8.0,40,0.00,,,0.00,Wunderground v.1.15,2013-02-17 19:30:00,
2013-02-17 14:35:00,23.3,2.5,29.66,NE,55,7.0,8.0,40,0.00,,,0.00,Wunderground v.1.15,2013-02-17 19:35:00,
2013-02-17 14:40:00,23.6,3.3,29.66,NNW,336,6.0,11.0,41,0.00,,,0.00,Wunderground v.1.15,2013-02-17 19:40:00,
2013-02-17 14:45:00,24.2,3.3,29.66,NE,41,6.0,11.0,40,0.00,,,0.00,Wunderground v.1.15,2013-02-17 19:45:00,
2013-02-17 14:50:00,24.2,1.6,29.66,WNW,296,7.0,7.0,37,0.00,,,0.00,Wunderground v.1.15,2013-02-17 19:50:00,
2013-02-17 15:00:00,23.6,1.1,29.66,NNE,13,7.0,8.0,37,0.00,,,0.00,Wunderground v.1.15,2013-02-17 20:00:00,
2013-02-17 15:05:00,23.1,1.8,29.66,NE,49,9.0,9.0,39,0.00,,,0.00,Wunderground v.1.15,2013-02-17 20:05:00,
2013-02-17 15:10:00,23.1,1.8,29.67,NNE,24,8.0,8.0,39,0.00,,,0.00,Wunderground v.1.15,2013-02-17 20:10:00,
2013-02-17 15:15:00,23.0,2.2,29.67,ENE,63,7.0,8.0,40,0.00,,,0.00,Wunderground v.1.15,2013-02-17 20:15:00,
2013-02-17 15:20:00,23.0,1.7,29.67,North,5,7.0,7.0,39,0.00,,,0.00,Wunderground v.1.15,2013-02-17 20:20:00,
2013-02-17 15:25:00,23.1,1.8,29.67,NNW,343,7.0,10.0,39,0.00,,,0.00,Wunderground v.1.15,2013-02-17 20:25:00,
2013-02-17 15:35:00,23.3,2.0,29.68,NE,44,6.0,10.0,39,0.00,,,0.00,Wunderground v.1.15,2013-02-17 20:35:00,
2013-02-17 15:40:00,23.2,2.9,29.67,ENE,57,5.0,10.0,41,0.00,,,0.00,Wunderground v.1.15,2013-02-17 20:40:00,
2013-02-17 15:45:00,22.9,2.1,29.68,North,355,5.0,10.0,40,0.00,,,0.00,Wunderground v.1.15,2013-02-17 20:45:00,
2013-02-17 15:50:00,22.5,1.2,29.68,NNE,17,7.0,7.0,39,0.00,,,0.00,Wunderground v.1.15,2013-02-17 20:50:00,
2013-02-17 15:55:00,22.5,1.8,29.68,NNE,22,6.0,8.0,40,0.00,,,0.00,Wunderground v.1.15,2013-02-17 20:55:00,
2013-02-17 16:00:00,22.4,1.7,29.68,NNW,338,6.0,6.0,40,0.00,,,0.00,Wunderground v.1.15,2013-02-17 21:00:00,
2013-02-17 16:05:00,22.1,1.9,29.69,NNE,25,6.0,8.0,41,0.00,,,0.00,Wunderground v.1.15,2013-02-17 21:05:00,
2013-02-17 16:10:00,22.2,2.6,29.69,North,5,6.0,8.0,42,0.00,,,0.00,Wunderground v.1.15,2013-02-17 21:10:00,
2013-02-17 16:15:00,21.9,2.3,29.69,ENE,76,6.0,8.0,42,0.00,,,0.00,Wunderground v.1.15,2013-02-17 21:15:00,
2013-02-17 16:25:00,21.6,2.5,29.70,NNW,330,7.0,10.0,43,0.00,,,0.00,Wunderground v.1.15,2013-02-17 21:25:00,
2013-02-17 16:35:00,21.4,2.8,29.71,NE,47,5.0,9.0,44,0.00,,,0.00,Wunderground v.1.15,2013-02-17 21:35:00,
2013-02-17 16:40:00,21.2,4.1,29.71,NE,40,4.0,4.0,47,0.00,,,0.00,Wunderground v.1.15,2013-02-17 21:40:00,
2013-02-17 16:45:00,21.0,3.4,29.71,ENE,62,4.0,9.0,46,0.00,,,0.00,Wunderground v.1.15,2013-02-17 21:45:00,
2013-02-17 16:50:00,20.6,3.1,29.71,NE,34,5.0,5.0,46,0.00,,,0.00,Wunderground v.1.15,2013-02-17 21:50:00,
2013-02-17 16:55:00,20.3,2.8,29.72,NE,53,5.0,8.0,46,0.00,,,0.00,Wunderground v.1.15,2013-02-17 21:55:00,
2013-02-17 17:05:00,19.8,2.8,29.72,NE,47,6.0,11.0,47,0.00,,,0.00,Wunderground v.1.15,2013-02-17 22:05:00,
2013-02-17 17:10:00,19.7,3.2,29.73,East,88,6.0,8.0,48,0.00,,,0.00,Wunderground v.1.15,2013-02-17 22:10:00,
2013-02-17 17:15:00,19.4,2.9,29.73,NNE,28,6.0,8.0,48,0.00,,,0.00,Wunderground v.1.15,2013-02-17 22:15:00,
2013-02-17 17:20:00,19.3,2.8,29.73,NE,37,5.0,8.0,48,0.00,,,0.00,Wunderground v.1.15,2013-02-17 22:20:00,
2013-02-17 17:25:00,19.1,2.6,29.74,NW,325,4.0,8.0,48,0.00,,,0.00,Wunderground v.1.15,2013-02-17 22:25:00,
2013-02-17 17:30:00,18.9,3.3,29.74,WNW,303,4.0,4.0,50,0.00,,,0.00,Wunderground v.1.15,2013-02-17 22:30:00,
2013-02-17 17:40:00,18.4,2.4,29.74,NNW,338,4.0,4.0,49,0.00,,,0.00,Wunderground v.1.15,2013-02-17 22:40:00,
2013-02-17 17:50:00,18.1,3.0,29.75,NNE,19,3.0,8.0,51,0.00,,,0.00,Wunderground v.1.15,2013-02-17 22:50:00,
2013-02-17 17:55:00,17.9,2.8,29.76,North,355,3.0,8.0,51,0.00,,,0.00,Wunderground v.1.15,2013-02-17 22:55:00,
2013-02-17 18:00:00,17.6,2.1,29.76,NW,324,4.0,4.0,50,0.00,,,0.00,Wunderground v.1.15,2013-02-17 23:00:00,
2013-02-17 18:05:00,17.3,1.8,29.76,ENE,67,4.0,8.0,50,0.00,,,0.00,Wunderground v.1.15,2013-02-17 23:05:00,
2013-02-17 18:10:00,17.1,1.6,29.77,ENE,58,3.0,10.0,50,0.00,,,0.00,Wunderground v.1.15,2013-02-17 23:10:00,
2013-02-17 18:15:00,17.0,2.4,29.77,NE,47,4.0,10.0,52,0.00,,,0.00,Wunderground v.1.15,2013-02-17 23:15:00,
2013-02-17 18:20:00,16.8,2.2,29.77,NE,52,5.0,5.0,52,0.00,,,0.00,Wunderground v.1.15,2013-02-17 23:20:00,
2013-02-17 18:30:00,16.5,1.9,29.78,WNW,297,4.0,4.0,52,0.00,,,0.00,Wunderground v.1.15,2013-02-17 23:30:00,
2013-02-17 18:35:00,16.4,1.8,29.79,NNE,28,5.0,5.0,52,0.00,,,0.00,Wunderground v.1.15,2013-02-17 23:35:00,
2013-02-17 18:40:00,16.3,1.7,29.79,North,11,5.0,5.0,52,0.00,,,0.00,Wunderground v.1.15,2013-02-17 23:40:00,
2013-02-17 18:45:00,16.1,1.5,29.80,North,5,5.0,8.0,52,0.00,,,0.00,Wunderground v.1.15,2013-02-17 23:45:00,
2013-02-17 18:50:00,15.9,1.8,29.80,NNE,22,4.0,4.0,53,0.00,,,0.00,Wunderground v.1.15,2013-02-17 23:50:00,
2013-02-17 18:55:00,15.8,1.7,29.80,North,11,2.0,8.0,53,0.00,,,0.00,Wunderground v.1.15,2013-02-17 23:55:00,
2013-02-17 19:00:00,15.6,1.9,29.80,North,350,3.0,3.0,54,0.00,,,0.00,Wunderground v.1.15,2013-02-18 00:00:00,
2013-02-17 19:05:00,15.5,1.8,29.80,NNE,32,3.0,8.0,54,0.00,,,0.00,Wunderground v.1.15,2013-02-18 00:05:00,
2013-02-17 19:15:00,15.2,1.5,29.81,NNE,25,4.0,8.0,54,0.00,,,0.00,Wunderground v.1.15,2013-02-18 00:15:00,
2013-02-17 19:20:00,15.1,1.4,29.81,NNW,344,4.0,4.0,54,0.00,,,0.00,Wunderground v.1.15,2013-02-18 00:20:00,
2013-02-17 19:25:00,15.0,1.7,29.81,North,355,4.0,8.0,55,0.00,,,0.00,Wunderground v.1.15,2013-02-18 00:25:00,
2013-02-17 19:30:00,14.8,1.9,29.81,NE,50,3.0,3.0,56,0.00,,,0.00,Wunderground v.1.15,2013-02-18 00:30:00,
2013-02-17 19:35:00,14.7,1.4,29.81,NE,49,1.0,8.0,55,0.00,,,0.00,Wunderground v.1.15,2013-02-18 00:35:00,
2013-02-17 19:40:00,14.5,1.2,29.82,ENE,60,2.0,10.0,55,0.00,,,0.00,Wunderground v.1.15,2013-02-18 00:40:00,
2013-02-17 19:45:00,14.5,1.2,29.82,NNE,24,5.0,10.0,55,0.00,,,0.00,Wunderground v.1.15,2013-02-18 00:45:00,
2013-02-17 19:55:00,14.1,1.3,29.82,NNE,33,4.0,8.0,56,0.00,,,0.00,Wunderground v.1.15,2013-02-18 00:55:00,
2013-02-17 20:05:00,13.7,1.6,29.82,NE,49,4.0,8.0,58,0.00,,,0.00,Wunderground v.1.15,2013-02-18 01:05:00,
2013-02-17 20:10:00,13.5,1.8,29.82,NE,49,5.0,8.0,59,0.00,,,0.00,Wunderground v.1.15,2013-02-18 01:10:00,
2013-02-17 20:15:00,13.4,1.7,29.83,NNE,32,7.0,8.0,59,0.00,,,0.00,Wunderground v.1.15,2013-02-18 01:15:00,
2013-02-17 20:20:00,13.2,1.9,29.83,NE,50,6.0,13.0,60,0.00,,,0.00,Wunderground v.1.15,2013-02-18 01:20:00,
2013-02-17 20:25:00,13.1,1.8,29.83,ENE,61,5.0,13.0,60,0.00,,,0.00,Wunderground v.1.15,2013-02-18 01:25:00,
2013-02-17 20:30:00,13.0,2.1,29.84,North,10,3.0,8.0,61,0.00,,,0.00,Wunderground v.1.15,2013-02-18 01:30:00,
2013-02-17 20:35:00,12.9,2.0,29.84,North,360,3.0,8.0,61,0.00,,,0.00,Wunderground v.1.15,2013-02-18 01:35:00,
2013-02-17 20:45:00,12.7,2.1,29.84,NNE,16,3.0,8.0,62,0.00,,,0.00,Wunderground v.1.15,2013-02-18 01:45:00,
2013-02-17 20:50:00,12.6,2.0,29.84,NNE,17,3.0,8.0,62,0.00,,,0.00,Wunderground v.1.15,2013-02-18 01:50:00,
2013-02-17 20:55:00,12.6,2.0,29.85,NE,54,4.0,8.0,62,0.00,,,0.00,Wunderground v.1.15,2013-02-18 01:55:00,
2013-02-17 21:00:00,12.5,2.3,29.85,NE,50,4.0,4.0,63,0.00,,,0.00,Wunderground v.1.15,2013-02-18 02:00:00,
2013-02-17 21:05:00,12.4,2.2,29.85,NE,42,3.0,10.0,63,0.00,,,0.00,Wunderground v.1.15,2013-02-18 02:05:00,
2013-02-17 21:10:00,12.3,2.4,29.85,NNE,21,2.0,2.0,64,0.00,,,0.00,Wunderground v.1.15,2013-02-18 02:10:00,
2013-02-17 21:15:00,12.2,2.0,29.85,NE,42,2.0,3.0,63,0.00,,,0.00,Wunderground v.1.15,2013-02-18 02:15:00,
2013-02-17 21:25:00,12.2,2.3,29.86,North,360,3.0,8.0,64,0.00,,,0.00,Wunderground v.1.15,2013-02-18 02:25:00,
2013-02-17 21:30:00,12.1,2.2,29.86,NNW,346,3.0,3.0,64,0.00,,,0.00,Wunderground v.1.15,2013-02-18 02:30:00,
2013-02-17 21:35:00,12.1,2.2,29.86,North,355,3.0,8.0,64,0.00,,,0.00,Wunderground v.1.15,2013-02-18 02:35:00,
2013-02-17 21:40:00,12.1,2.6,29.86,NNE,31,3.0,8.0,65,0.00,,,0.00,Wunderground v.1.15,2013-02-18 02:40:00,
2013-02-17 21:45:00,12.1,2.6,29.86,NE,41,3.0,8.0,65,0.00,,,0.00,Wunderground v.1.15,2013-02-18 02:45:00,
2013-02-17 21:50:00,12.1,2.6,29.86,ENE,69,3.0,8.0,65,0.00,,,0.00,Wunderground v.1.15,2013-02-18 02:50:00,
2013-02-17 21:55:00,12.1,2.6,29.86,WNW,290,4.0,8.0,65,0.00,,,0.00,Wunderground v.1.15,2013-02-18 02:55:00,
2013-02-17 22:05:00,11.9,2.7,29.86,West,269,2.0,8.0,66,0.00,,,0.00,Wunderground v.1.15,2013-02-18 03:05:00,
2013-02-17 22:10:00,11.9,2.7,29.86,NNW,329,3.0,3.0,66,0.00,,,0.00,Wunderground v.1.15,2013-02-18 03:10:00,
2013-02-17 22:15:00,11.9,2.7,29.86,ENE,69,4.0,9.0,66,0.00,,,0.00,Wunderground v.1.15,2013-02-18 03:15:00,
2013-02-17 22:20:00,11.9,2.7,29.86,NE,42,4.0,8.0,66,0.00,,,0.00,Wunderground v.1.15,2013-02-18 03:20:00,
2013-02-17 22:25:00,11.9,2.7,29.86,NNW,327,3.0,8.0,66,0.00,,,0.00,Wunderground v.1.15,2013-02-18 03:25:00,
2013-02-17 22:30:00,11.9,2.7,29.86,NNW,342,3.0,3.0,66,0.00,,,0.00,Wunderground v.1.15,2013-02-18 03:30:00,
2013-02-17 22:35:00,11.8,2.6,29.86,NNW,341,3.0,8.0,66,0.00,,,0.00,Wunderground v.1.15,2013-02-18 03:35:00,
2013-02-17 22:45:00,11.8,2.6,29.87,NNE,24,4.0,8.0,66,0.00,,,0.00,Wunderground v.1.15,2013-02-18 03:45:00,
2013-02-17 22:55:00,11.8,2.6,29.87,NW,325,3.0,8.0,66,0.00,,,0.00,Wunderground v.1.15,2013-02-18 03:55:00,
2013-02-17 23:00:00,11.7,2.8,29.87,NNW,331,3.0,3.0,67,0.00,,,0.00,Wunderground v.1.15,2013-02-18 04:00:00,
2013-02-17 23:05:00,11.7,2.8,29.87,NE,36,4.0,4.0,67,0.00,,,0.00,Wunderground v.1.15,2013-02-18 04:05:00,
2013-02-17 23:10:00,11.7,2.8,29.87,NNW,341,4.0,4.0,67,0.00,,,0.00,Wunderground v.1.15,2013-02-18 04:10:00,
2013-02-17 23:15:00,11.7,2.8,29.88,NNW,348,3.0,8.0,67,0.00,,,0.00,Wunderground v.1.15,2013-02-18 04:15:00,
2013-02-17 23:20:00,11.6,2.8,29.88,North,5,3.0,8.0,67,0.00,,,0.00,Wunderground v.1.15,2013-02-18 04:20:00,
2013-02-17 23:25:00,11.6,2.8,29.88,NE,40,3.0,8.0,67,0.00,,,0.00,Wunderground v.1.15,2013-02-18 04:25:00,
2013-02-17 23:35:00,11.6,2.8,29.88,NE,50,4.0,11.0,67,0.00,,,0.00,Wunderground v.1.15,2013-02-18 04:35:00,
2013-02-17 23:40:00,11.6,2.8,29.88,ENE,74,5.0,12.0,67,0.00,,,0.00,Wunderground v.1.15,2013-02-18 04:40:00,
2013-02-17 23:45:00,11.5,2.7,29.89,East,94,5.0,12.0,67,0.00,,,0.00,Wunderground v.1.15,2013-02-18 04:45:00,
2013-02-17 23:50:00,11.5,3.0,29.89,NE,56,4.0,8.0,68,0.00,,,0.00,Wunderground v.1.15,2013-02-18 04:50:00,